EW7772 Weather Reports


time (UTC)temp
F
wind
direction
speed
knots
gust
knots
rain 1hr
in
rain 24hr
in
rain mn
in
humidity
%
barometer
mb
20260901104531 73 186 0.9 3.5 0.00 0.00 0.00 56 1021.5
20260901103020 72 290 0.9 5.2 0.00 0.00 0.00 58 1021.5
20260901101515 71 317 0.9 4.3 0.00 0.00 0.00 61 1021.7
20260901100011 70 265 0.0 3.5 0.00 0.00 0.00 63 1021.7
20260901094511 70 290 0.0 2.6 0.00 0.00 0.00 65 1021.8
20260901093006 69 290 0.0 4.3 0.00 0.00 0.00 66 1021.8
20260901091510 69 284 0.0 3.5 0.00 0.00 0.00 68 1021.9
20260901090005 68 286 0.0 2.6 0.00 0.00 0.00 67 1021.9
20260901084605 67 293 0.0 2.6 0.00 0.00 0.00 69 1022.0
20260901083056 66 294 0.0 2.6 0.00 0.00 0.00 72 1021.9
20260901081554 65 292 0.0 0.0 0.00 0.00 0.00 74 1021.9
20260901080106 65 292 0.0 0.9 0.00 0.00 0.00 74 1021.8
20260901074547 64 293 0.0 1.7 0.00 0.00 0.00 76 1021.7
20260901073045 63 293 0.0 0.9 0.00 0.00 0.00 78 1021.7
20260901071532 63 293 0.0 0.9 0.00 0.00 0.00 79 1021.7
20260901070044 62 293 0.0 0.9 0.00 0.00 0.00 81 1021.7
20260901064526 61 293 0.0 0.0 0.00 0.00 0.00 84 1021.7
20260901063027 59 293 0.0 0.0 0.00 0.00 0.00 86 1021.6
20260901061522 58 293 0.0 0.0 0.00 0.00 0.00 88 1021.5
20260901060032 58 293 0.0 0.0 0.00 0.00 0.00 89 1021.4
20260901054525 56 293 0.0 0.0 0.00 0.00 0.00 92 1021.4
20260901053020 55 293 0.0 0.0 0.00 0.00 0.00 92 1021.3
20260901051522 55 293 0.0 0.0 0.00 0.00 0.00 91 1021.4
20260901050017 55 293 0.0 0.0 0.00 0.00 0.00 91 1021.3
20260901044519 55 293 0.0 0.0 0.00 0.00 0.00 91 1021.3
20260901043017 55 293 0.0 0.0 0.00 0.00 0.00 90 1021.2
20260901041512 56 293 0.0 0.0 0.00 0.00 0.00 90 1021.2
20260901040016 56 293 0.0 0.0 0.00 0.00 0.00 90 1021.1
20260901034512 56 293 0.0 0.0 0.00 0.00 0.00 90 1021.0
20260901033027 56 293 0.0 0.0 0.00 0.00 0.00 90 1021.0
20260901031515 56 293 0.0 0.0 0.00 0.00 0.00 90 1021.1
20260901030009 56 293 0.0 0.0 0.00 0.00 0.00 89 1021.1
20260901024509 56 293 0.0 0.0 0.00 0.02 0.00 89 1021.0
20260901023008 56 293 0.0 0.0 0.00 0.02 0.00 89 1021.0
20260901021507 56 293 0.0 0.0 0.00 0.02 0.00 89 1021.0
20260901020006 56 293 0.0 0.0 0.00 0.02 0.00 89 1020.9
20260901014505 56 293 0.0 0.0 0.00 0.13 0.00 89 1020.8
20260901013003 57 293 0.0 0.0 0.00 0.13 0.00 88 1020.7
20260901011501 57 293 0.0 0.0 0.00 0.13 0.00 88 1020.7
20260901010100 57 293 0.0 0.0 0.00 0.13 0.00 87 1020.6
20260901004601 57 293 0.0 0.0 0.00 0.35 0.00 87 1020.5
20260901003106 57 293 0.0 0.0 0.00 0.35 0.00 88 1020.5
20260901001556 57 293 0.0 0.0 0.00 0.35 0.00 86 1020.4
20260901000054 58 293 0.0 0.0 0.00 0.35 0.00 85 1020.4
20260831234552 58 293 0.0 0.0 0.00 0.35 0.00 85 1020.4
20260831233050 59 293 0.0 0.0 0.00 0.35 0.00 84 1020.3
20260831231557 59 293 0.0 0.0 0.00 0.35 0.00 84 1020.3
20260831230049 59 293 0.0 0.0 0.00 0.35 0.00 83 1020.3
20260831224546 60 293 0.0 0.0 0.00 0.35 0.00 82 1020.3
20260831223045 60 293 0.0 0.0 0.00 0.35 0.00 82 1020.2
20260831221545 60 293 0.0 0.0 0.00 0.35 0.00 83 1020.2
20260831220042 60 293 0.0 0.0 0.00 0.35 0.00 81 1020.2
20260831214540 60 293 0.0 0.0 0.00 0.35 0.35 80 1020.0
20260831213043 61 293 0.0 0.0 0.00 0.35 0.35 79 1020.0
20260831211537 61 293 0.0 0.0 0.00 0.35 0.35 78 1019.9
20260831210035 61 293 0.0 0.0 0.00 0.35 0.35 79 1019.8
20260831204534 62 293 0.0 0.0 0.00 0.35 0.35 77 1019.6
20260831203034 62 293 0.0 0.0 0.00 0.35 0.35 76 1019.5
20260831201537 62 293 0.0 0.9 0.00 0.35 0.35 76 1019.3
20260831200030 63 293 0.0 3.5 0.00 0.35 0.35 77 1019.2
20260831194552 63 223 0.0 2.6 0.00 0.35 0.35 78 1019.1
20260831193028 63 255 0.0 4.3 0.00 0.35 0.35 77 1019.0
20260831191526 64 161 0.0 2.6 0.00 0.35 0.35 77 1018.9
20260831190033 64 295 0.9 5.2 0.00 0.35 0.35 76 1018.8
20260831184524 65 256 0.0 1.7 0.00 0.35 0.35 78 1018.6
20260831183022 66 232 0.0 0.9 0.00 0.35 0.35 74 1018.4
20260831181521 67 233 0.0 2.6 0.00 0.35 0.35 70 1018.3
20260831180021 67 275 0.0 1.7 0.00 0.35 0.35 69 1018.0
20260831174531 67 275 0.0 0.9 0.00 0.35 0.35 67 1017.7
20260831173016 67 275 0.0 0.9 0.00 0.35 0.35 66 1017.4
20260831171512 68 274 0.0 4.3 0.00 0.35 0.35 65 1017.2
20260831170013 70 311 0.0 4.3 0.00 0.35 0.35 60 1017.1
20260831164510 72 136 0.0 5.2 0.00 0.35 0.35 55 1016.8
20260831163010 72 101 0.9 7.8 0.00 0.35 0.35 54 1016.7
20260831161511 73 273 0.0 2.6 0.00 0.35 0.35 55 1016.4
20260831160009 73 238 1.7 7.8 0.00 0.35 0.35 55 1016.6
20260831154513 74 276 0.9 4.3 0.00 0.35 0.35 53 1016.3
20260831153009 74 329 0.9 4.3 0.00 0.35 0.35 52 1016.3
20260831151508 76 272 1.7 7.8 0.00 0.35 0.35 48 1016.2
20260831150008 76 190 0.0 5.2 0.00 0.35 0.35 48 1016.0
20260831144506 76 265 0.9 7.0 0.00 0.35 0.35 47 1016.0
20260831143107 74 230 0.0 7.0 0.00 0.35 0.35 49 1016.1
20260831141505 75 313 0.0 5.2 0.00 0.35 0.35 46 1016.1
20260831140007 76 272 0.9 6.1 0.00 0.35 0.35 43 1016.1
20260831134505 77 292 1.7 6.1 0.00 0.35 0.35 43 1016.2
20260831133005 76 223 1.7 7.0 0.00 0.35 0.35 44 1016.4
20260831131605 74 246 0.0 2.6 0.00 0.35 0.35 50 1016.4
20260831130106 75 288 0.9 7.8 0.00 0.35 0.35 48 1016.5
20260831124608 74 311 0.0 9.6 0.00 0.35 0.35 53 1016.7
20260831123059 75 300 1.7 5.2 0.00 0.35 0.35 51 1016.7
20260831121555 74 295 0.9 5.2 0.00 0.35 0.35 52 1016.7
20260831120054 73 296 0.9 5.2 0.00 0.35 0.35 53 1016.8
20260831114557 73 322 0.9 7.0 0.00 0.35 0.35 53 1016.8
20260831113057 73 257 0.9 5.2 0.00 0.35 0.35 55 1016.7
20260831111556 74 248 1.7 5.2 0.00 0.35 0.35 54 1016.8
20260831110050 73 281 0.9 7.0 0.00 0.35 0.35 57 1016.9